This demonstration page uses our WeatherBlox Daily Observations layout. Learn more.

Left ArrowRight Arrow

Hourly Observations for July 23, 2019

Temp ( °F °C ) Dew Point ( °F °C ) Humidity (%) Winds ( mph kmh ) Pressure ( in mb ) Visibility ( mi km ) Precip ( " mm )
12:15 am 00:15 Clear 64 17.9 60 15.3 85 85 N N/A 30.01 1016 10 16 N/A
12:35 am 00:35 Clear 63 17.4 60 15.4 88 88 N N/A 30.01 1016 10 16 N/A
12:55 am 00:55 Partly Cloudy 63 17.1 59 15.1 88 88 NNW 3 6 30.01 1016 10 16 N/A
1:15 am 01:15 Clear 63 17.1 59 14.8 86 86 N 3 6 30.01 1016 10 16 0.01 0.25
1:35 am 01:35 Clear 62 16.8 59 14.9 89 89 N N/A 30.01 1016 10 16 0.01 0.25
1:55 am 01:55 Clear 62 16.9 59 14.9 88 88 NNE 3 6 30.01 1016 10 16 0.01 0.25
2:15 am 02:15 Clear 62 16.4 59 14.8 90 90 NNE 5 7 30.01 1016 10 16 0.01 0.25
2:35 am 02:35 Clear 61 16.3 59 14.8 91 91 NNE 5 7 30.01 1016 10 16 0.01 0.25
2:55 am 02:55 Clear 61 16.1 58 14.7 91 91 NNE 6 9 30.01 1016 10 16 0.01 0.25
3:15 am 03:15 Clear 61 16.1 58 14.7 91 91 N 6 9 30.01 1016 10 16 N/A
3:35 am 03:35 Clear 61 16 58 14.5 91 91 NNE 5 7 30.01 1016 10 16 0.01 0.25
3:55 am 03:55 Clear 61 15.9 58 14.5 91 91 NNE 6 9 30.01 1016 10 16 0.01 0.25
4:15 am 04:15 Clear 61 15.9 58 14.4 91 91 NNE 5 7 30.01 1016 10 16 N/A
4:35 am 04:35 Clear 61 15.9 58 14.5 91 91 NNE 5 7 30.01 1016 10 16 N/A
4:55 am 04:55 Clear 62 16.4 58 14.6 89 89 NNE 6 9 30.01 1016 10 16 0.01 0.25
5:15 am 05:15 Clear 61 16.3 58 14.6 90 90 NNE 3 6 30.02 1017 10 16 N/A
5:35 am 05:35 Clear 61 16.1 58 14.6 91 91 NNE 3 6 30.02 1017 10 16 N/A
5:55 am 05:55 Clear 60 15.7 58 14.5 93 93 N N/A 30.02 1017 10 16 N/A
6:15 am 06:15 Clear 60 15.6 58 14.6 94 94 N N/A 30.03 1017 10 16 N/A
6:35 am 06:35 Sunny 60 15.4 58 14.4 94 94 N N/A 30.04 1017 10 16 N/A
6:55 am 06:55 Sunny 60 15.3 58 14.4 94 94 N N/A 30.04 1017 10 16 N/A
7:15 am 07:15 Sunny 60 15.5 58 14.6 94 94 N N/A 30.04 1017 10 16 0.01 0.25
7:35 am 07:35 Sunny 61 16.2 59 15 93 93 N N/A 30.04 1017 10 16 0.01 0.25
7:55 am 07:55 Sunny 63 17 59 15 88 88 N N/A 30.04 1017 10 16 0.01 0.25
8:15 am 08:15 Sunny 64 17.8 60 15.8 88 88 N N/A 30.05 1018 10 16 N/A
8:35 am 08:35 Sunny 65 18.4 60 15.8 85 85 NNE 7 11 30.05 1018 10 16 N/A
8:55 am 08:55 Sunny 67 19.2 60 15.8 81 81 NNE 8 13 30.05 1017 10 16 N/A
9:15 am 09:15 Sunny 68 20 61 16 78 78 N 6 9 30.05 1018 10 16 N/A
9:35 am 09:35 Sunny 69 20.5 59 15 71 71 NNE 7 11 30.05 1018 10 16 0.01 0.25
9:55 am 09:55 Sunny 70 21.2 59 15.2 69 69 N 7 11 30.05 1018 10 16 0.01 0.25
10:15 am 10:15 Sunny 71 21.7 58 14.5 64 64 N 9 15 30.05 1018 10 16 N/A
10:35 am 10:35 Sunny 72 22.4 58 14.4 61 61 NNW 9 15 30.06 1018 10 16 N/A
10:55 am 10:55 Sunny 73 23 55 12.8 53 53 NNE 9 15 30.06 1018 10 16 N/A
11:15 am 11:15 Sunny 74 23.5 55 12.6 50 50 NNE 9 15 30.06 1018 10 16 N/A
11:35 am 11:35 Sunny 74 23.6 55 12.5 50 50 N 7 11 30.06 1018 10 16 N/A
11:55 am 11:55 Partly Cloudy 75 24.1 56 13.2 51 51 N 9 15 30.06 1018 10 16 0.01 0.25
12:15 pm 12:15 Partly Cloudy 76 24.6 54 12.3 46 46 NNE 9 15 30.05 1018 10 16 N/A
12:35 pm 12:35 Partly Cloudy 75 23.8 54 12.1 48 48 NNW 9 15 30.05 1017 10 16 N/A
12:55 pm 12:55 Mostly Cloudy 77 25 54 12.1 45 45 NNE 9 15 30.04 1017 10 16 N/A
1:15 pm 13:15 Mostly Cloudy 76 24.7 54 12.4 46 46 NNW 10 17 30.04 1017 10 16 N/A
1:35 pm 13:35 Sunny 78 25.3 55 12.5 45 45 N 9 15 30.03 1017 10 16 N/A
1:55 pm 13:55 Partly Cloudy 77 25.2 56 13.3 48 48 N 12 19 30.03 1017 10 16 0.01 0.25
2:15 pm 14:15 Partly Cloudy 77 25.1 54 12.3 45 45 NW 12 19 30.03 1017 10 16 N/A
2:35 pm 14:35 Mostly Cloudy 77 25.1 54 12.2 45 45 NNW 7 11 30.02 1017 10 16 N/A
2:55 pm 14:55 Mostly Cloudy 78 25.5 56 13.3 47 47 NNE 8 13 30.02 1017 10 16 N/A
3:15 pm 15:15 Partly Cloudy 78 25.5 55 13 46 46 NNW 9 15 30.01 1016 10 16 N/A
3:35 pm 15:35 Sunny 78 25.3 57 13.7 49 49 NW 8 13 30.01 1016 10 16 N/A
3:55 pm 15:55 Partly Cloudy 76 24.4 55 12.8 48 48 NNW 6 9 30.01 1016 10 16 N/A
4:15 pm 16:15 Partly Cloudy 78 25.8 55 12.8 45 45 NNW 9 15 30.00 1016 10 16 N/A
4:35 pm 16:35 Partly Cloudy 79 26.1 55 12.8 44 44 WNW 9 15 30.00 1016 10 16 N/A
4:55 pm 16:55 Mostly Cloudy 78 25.8 55 13 45 45 NNW 12 19 30.00 1016 10 16 N/A
5:15 pm 17:15 Sunny 78 25.5 56 13.6 48 48 NW 7 11 30.00 1016 10 16 N/A
5:35 pm 17:35 Sunny 78 25.6 56 13.5 47 47 NNW 7 11 30.00 1016 10 16 N/A
5:55 pm 17:55 Sunny 78 25.5 56 13.2 47 47 NNW 10 17 30.00 1016 10 16 N/A
6:15 pm 18:15 Sunny 78 25.4 56 13.2 47 47 N 7 11 29.99 1016 10 16 N/A
6:35 pm 18:35 Sunny 78 25.3 56 13.5 48 48 NNW 9 15 29.99 1016 10 16 0.01 0.25
6:55 pm 18:55 Sunny 77 25.2 56 13.2 47 47 NNW 9 15 29.99 1016 10 16 0.01 0.25
7:15 pm 19:15 Sunny 77 24.8 56 13.2 49 49 NNW 5 7 29.99 1016 10 16 N/A
7:35 pm 19:35 Partly Cloudy 76 24.3 57 14 53 53 NNW 5 7 29.99 1016 10 16 N/A
7:55 pm 19:55 Sunny 75 23.9 58 14.4 55 55 N 5 7 30.00 1016 10 16 N/A
8:15 pm 20:15 Sunny 74 23.1 58 14.5 59 59 NNW 6 9 30.01 1016 10 16 N/A
8:35 pm 20:35 Sunny 73 22.6 53 11.9 51 51 N 8 13 30.01 1016 10 16 N/A
8:55 pm 20:55 Sunny 70 21.3 53 11.5 54 54 NNW 5 7 30.02 1017 10 16 0.01 0.25
9:15 pm 21:15 Clear 68 20.1 53 11.8 59 59 NNW 5 7 30.02 1017 10 16 N/A
9:35 pm 21:35 Clear 67 19.3 54 12.1 63 63 N N/A 30.04 1017 10 16 N/A
9:55 pm 21:55 Clear 65 18.1 55 12.9 72 72 N N/A 30.04 1017 10 16 N/A
10:15 pm 22:15 Clear 63 17.2 55 12.9 76 76 N N/A 30.05 1018 10 16 N/A
10:35 pm 22:35 Clear 61 16.2 56 13.4 84 84 N N/A 30.05 1018 10 16 N/A
10:55 pm 22:55 Clear 62 16.7 55 12.9 78 78 N N/A 30.05 1018 10 16 N/A
11:15 pm 23:15 Clear 60 15.4 57 13.7 90 90 N N/A 30.06 1018 10 16 N/A
11:35 pm 23:35 Clear 60 15.3 57 13.8 91 91 N N/A 30.06 1018 10 16 0.01 0.25
11:55 pm 23:55 Clear 60 15.4 57 14 91 91 N N/A 30.06 1018 10 16 0.01 0.25

Powered by AerisWeather